Weather History for Eau Claire, WI

Change the Weather History Date:

Monday, December 3, 2012

  Actual Average Record
Temperature  
Mean Temperature 50 °F 23 °F  
Max Temperature 60 °F 32 °F 61 °F (1998)
Min Temperature 39 °F 15 °F -20 °F (1919)
Degree Days  
Heating Degree Days 15 42  
Month to date heating degree days 67 124  
Since 1 July heating degree days 1788 1870  
Cooling Degree Days 0 0  
Month to date cooling degree days 0 0  
Year to date cooling degree days 830 579  
Moisture  
Dew Point 46 °F    
Average Humidity 86    
Maximum Humidity 100    
Minimum Humidity 71    
Precipitation  
Precipitation 0.00 in 0.04 in 0.60 in (1990)
Month to date precipitation 0.00 0.13  
Year to date precipitation 22.41 30.11  
Snow  
Snow 0.00 in 0.30 in 6.30 in (1990)
Month to date snowfall 0.0 0.9  
Since 1 July snowfall 0.9 7.2  
Snow Depth 0.00 in    
Sea Level Pressure  
Sea Level Pressure 29.71 in    
Wind  
Wind Speed 12 mph (South)    
Max Wind Speed 24 mph    
Max Gust Speed 31 mph    
Visibility 5 miles    
Events      
T = Trace of Precipitation, MM = Missing Value Source: NWS Daily Summary

Daily Weather History Graph

Daily Weather History Graph

Search for Another Location

Airport:

Trip Planner

Search our weather history database for the weather conditions in past years. The results will help you decide how hot, cold, wet, or windy it might be!

Date:

Astronomy

Dec. 03, 2012 Rise Set
Actual Time 7:26 AM CST 4:25 PM CST
Civil Twilight 6:53 AM CST 4:58 PM CST
Nautical Twilight 6:16 AM CST 5:35 PM CST
Astronomical Twilight 5:41 AM CST 6:10 PM CST
Moon 9:19 PM CST (12/3) 10:43 AM CST (12/3)
Length of Visible Light 10h 05m
Length of Day
8h 59m
Waning Gibbous, 78% of the Moon is Illuminated
Dec 3
Waning Gibbous
Dec 6
Last Quarter
Dec 13
New
Dec 19
First Quarter
Dec 28
Full

Hourly Weather History & Observations

Time (CST) Temp. Windchill Dew Point Humidity Pressure Visibility Wind Dir Wind Speed Gust Speed Precip Events Conditions
12:56 AM 42.1 °F 37.7 °F 39.9 °F 92% 29.90 in 4.0 mi SE 6.9 mph - N/A   Overcast
1:56 AM 43.0 °F 38.2 °F 41.0 °F 93% 29.88 in 4.0 mi SE 8.1 mph - N/A   Overcast
2:14 AM 44.6 °F 39.7 °F 42.8 °F 93% 29.85 in 3.0 mi SSE 9.2 mph - N/A   Overcast
2:33 AM 44.6 °F 40.2 °F 42.8 °F 93% 29.84 in 2.5 mi SSE 8.1 mph - N/A   Overcast
2:54 AM 44.6 °F 39.2 °F 42.8 °F 93% 29.83 in 3.0 mi SSE 10.4 mph - N/A   Overcast
2:56 AM 44.1 °F 37.1 °F 42.1 °F 93% 29.85 in 3.0 mi SSE 15.0 mph 18.4 mph N/A   Overcast
3:56 AM 45.0 °F 39.3 °F 43.0 °F 93% 29.82 in 4.0 mi SSE 11.5 mph - N/A   Overcast
4:56 AM 46.0 °F 41.0 °F 44.1 °F 93% 29.79 in 3.0 mi SSE 10.4 mph - N/A   Overcast
5:04 AM 46.4 °F 41.5 °F 44.6 °F 93% 29.76 in 2.5 mi SSE 10.4 mph - N/A   Overcast
5:56 AM 46.0 °F 40.6 °F 45.0 °F 96% 29.76 in 2.0 mi SSE 11.5 mph - N/A   Overcast
6:56 AM 46.9 °F - 45.0 °F 93% 29.72 in 2.0 mi SSE 11.5 mph - N/A   Overcast
7:27 AM 48.2 °F - 46.4 °F 93% 29.68 in 2.0 mi SSE 13.8 mph - N/A   Overcast
7:56 AM 48.0 °F - 46.9 °F 96% 29.68 in 1.2 mi SSE 13.8 mph - N/A   Overcast
8:56 AM 48.9 °F - 48.0 °F 97% 29.65 in 1.2 mi SSE 17.3 mph - N/A   Overcast
9:39 AM 50.0 °F - 50.0 °F 100% 29.63 in 2.0 mi SSE 11.5 mph - N/A   Overcast
9:56 AM 51.1 °F - 50.0 °F 96% 29.64 in 1.8 mi SSE 12.7 mph - N/A   Overcast
10:56 AM 54.0 °F - 53.1 °F 97% 29.60 in 1.2 mi South 13.8 mph - N/A   Overcast
11:24 AM 53.6 °F - 53.6 °F 100% 29.58 in 2.0 mi South 8.1 mph - N/A   Overcast
11:40 AM 55.4 °F - 53.6 °F 94% 29.58 in 3.0 mi South 10.4 mph - N/A   Overcast
11:56 AM 55.0 °F - 54.0 °F 96% 29.59 in 3.0 mi South 9.2 mph - N/A   Overcast
12:40 PM 57.2 °F - 55.4 °F 94% 29.56 in 5.0 mi South 10.4 mph - N/A   Overcast
12:56 PM 57.0 °F - 55.0 °F 93% 29.57 in 5.0 mi South 9.2 mph - N/A   Overcast
1:26 PM 57.2 °F - 53.6 °F 88% 29.55 in 6.0 mi South 8.1 mph - N/A   Overcast
1:51 PM 57.2 °F - 53.6 °F 88% 29.55 in 6.0 mi South 10.4 mph - N/A   Overcast
1:56 PM 57.9 °F - 54.0 °F 87% 29.55 in 7.0 mi South 10.4 mph - N/A   Overcast
2:35 PM 59.0 °F - 53.6 °F 82% 29.55 in 9.0 mi SW 10.4 mph - N/A   Overcast
2:56 PM 60.1 °F - 52.0 °F 75% 29.57 in 10.0 mi WSW 15.0 mph 20.7 mph N/A   Overcast
3:10 PM 59.0 °F - 51.8 °F 77% 29.58 in 10.0 mi WSW 18.4 mph 25.3 mph N/A   Overcast
3:56 PM 55.9 °F - 46.9 °F 72% 29.62 in 9.0 mi West 17.3 mph 25.3 mph N/A   Mostly Cloudy
4:56 PM 52.0 °F - 43.0 °F 71% 29.68 in 10.0 mi West 16.1 mph - N/A   Mostly Cloudy
5:56 PM 50.0 °F - 41.0 °F 71% 29.73 in 10.0 mi West 12.7 mph - N/A   Scattered Clouds
6:56 PM 48.0 °F - 39.9 °F 74% 29.78 in 10.0 mi West 11.5 mph - N/A   Clear
7:56 PM 46.0 °F 39.3 °F 37.9 °F 73% 29.82 in 10.0 mi West 16.1 mph - N/A   Clear
8:56 PM 43.0 °F 37.7 °F 36.0 °F 76% 29.83 in 10.0 mi West 9.2 mph - N/A   Clear
9:56 PM 41.0 °F 36.4 °F 34.0 °F 76% 29.85 in 10.0 mi WSW 6.9 mph - N/A   Clear
10:56 PM 41.0 °F 35.8 °F 33.1 °F 73% 29.87 in 10.0 mi WSW 8.1 mph - N/A   Clear
11:56 PM 41.0 °F 35.8 °F 30.9 °F 67% 29.89 in 10.0 mi West 8.1 mph - N/A   Clear